Preview of NWS' New Version of Forecast
This preview is not operational and should not be used for support decisions.

Regional Weather Roundup (RWR)

Issued by Gray - Portland, ME (GYX)

                            
000
ASUS41 KGYX 211510
RWRGYX
WEATHER ROUNDUP FOR MAINE AND NEW HAMPSHIRE
NATIONAL WEATHER SERVICE GRAY ME
1100 AM EDT SUN APR 21 2019

MEZ002-005-006-010-012-015-018-020-021-024-026-027-029-211600-
MAINE
  
CITY           SKY/WX    TMP DP  RH WIND       PRES   REMARKS
PORTLAND       CLOUDY    57  55  93 S6        30.07R                  
SANFORD        CLOUDY    62  57  83 SE3       30.06R                  
BAR HARBOR     CLOUDY    53  52  96 S7        30.11S                  
WISCASSET      CLOUDY    54  53  97 CALM      30.09R FOG              
ROCKLAND       FOG       49  49 100 VRB3      30.10R VSB 1/4          
FRYEBURG       CLOUDY    62  56  80 SW3       30.04F                  
LEWISTONAUBURN   N/A     57  57 100 S5        30.07R                  
AUGUSTA        CLOUDY    54  54 100 SW5       30.07S FOG              
WATERVILLE     LGT RAIN  56  55  97 S6        30.04R                  
BANGOR         CLOUDY    55  53  93 S9        30.06R                  
GREENVILLE       N/A     51  50  96 SE7       30.01R                  
MILLINOCKET    FOG       53  52  96 VRB5      30.05R VSB 1/2          
HOULTON        CLOUDY    55  55 100 S10G17    30.02S FOG              
PRESQUE ISLE   CLOUDY    52  50  93 S9        29.99R                  
FRENCHVILLE    FOG       47  45  93 SE5       29.97R VSB<1/4          
CARIBOU        CLOUDY    50  48  93 S10       29.97S FOG              
$$

NHZ002-005-008-009-011-012-014-211600-
NEW HAMPSHIRE
  
CITY           SKY/WX    TMP DP  RH WIND       PRES   REMARKS
PORTSMOUTH     LGT RAIN  59  59 100 E9        30.03S                  
ROCHESTER      CLOUDY    63  59  87 S3        30.04S                  
NASHUA         CLOUDY    62  58  86 VRB6      30.03S                  
MANCHESTER     CLOUDY    63  55  75 VRB5      30.02S                  
CONCORD        CLOUDY    61  55  81 SE5       30.03R                  
LACONIA        CLOUDY    58  56  93 N6        30.03F                  
PLYMOUTH       CLOUDY    60  54  80 CALM      30.03R                  
BERLIN         CLOUDY    61  50  67 SE5       30.02R                  
WHITEFIELD     LGT RAIN  62  50  64 NE7       30.00F                  
JAFFREY        CLOUDY    59  52  77 W6        30.04R                  
KEENE          LGT RAIN  59  54  83 S5        30.03R                  
LEBANON        FAIR      64  51  62 S7        30.00R                  
MT WASHINGTON  LGT RAIN  41  37  87 SW35G47     N/A                   
$$

VTZ005-007-008-211600-
VERMONT
  
CITY           SKY/WX    TMP DP  RH WIND       PRES   REMARKS
ST JOHNSBURY     N/A     62  52  69 MISG      29.98F                  
MONTPELIER     FAIR      60  50  69 S8        30.02F                  
BURLINGTON     PTSUNNY   66  49  54 S13       29.94F                  
$$

MAZ007-012-024-CTZ003-RIZ002-NYZ038-NYZ072-211600-
SOUTHERN NEW ENGLAND AND NY
  
CITY           SKY/WX    TMP DP  RH WIND       PRES   REMARKS
BOSTON         CLOUDY    60  56  86 E9        30.05S                  
WORCESTER      CLOUDY    57  53  86 CALM      30.03R                  
NANTUCKET      CLOUDY    52  51  97 S13G18    30.06R FOG              
PROVIDENCE     LGT RAIN  59  57  93 S6        30.06R FOG              
HARTFORD       LGT RAIN  59  55  87 S7        30.02S                  
ALBANY         FAIR      66  52  60 S10       29.98R                  
NEW YORK CITY  PTSUNNY   58  51  78 SE9       29.99R                  
$$

ANZ081-ANZ082-ANZ150-NHZ014-MEZ023>029-211600-
COASTAL MARINE OBSERVATIONS
  
STATION/POSITION TIME  TEMP    WIND        PRES    WAVE
                       AIR SEA DIR/SP/G            HT/PER
                 (UTC) (F)     (DEG/KT/KT) (MB)    (FT/S)
ISLE OF SHOALS   1400   54     160/ 11/ 11 1017.2R
$$

.............KEY..............
   WCI - WIND CHILL
   TC  - TEMPERATURE IN CELSIUS
   VSB - VISIBILITY IN MILES
   HX  - HEAT INDEX
   FAIR- INDICATES FEW OR NO CLOUDS BELOW 12,000 FT, WITH NO 
         SIGNIFICANT WEATHER AND/OR OBSTRUCTIONS TO VISIBILITY.